User: anonymous   Login
Location: ?????????
(38.0736°N, 23.2119°E)
Time: 19:57:17
(UTC+00:00)
Language:

ADEOS - Orbit

View from above orbital plane
View from above orbital plane
View from above satellite
View from above satellite

Ground track
Ground track

The orbit data is extracted from the following two-line orbital elements,

1 24277U 96046A   24166.55263978  .00000234  00000-0  10869-3 0  9997
2 24277  98.8970 197.3699 0002379  90.5900 269.5553 14.29935777450944
Epoch (UTC): 14 June 2024 13:15:48
Eccentricity: 0.0002379
inclination: 98.8970°
perigee height: 790 km
apogee height: 793 km
right ascension of ascending node: 197.3699°
argument of perigee: 90.5900°
revolutions per day: 14.29935777
mean anomaly at epoch: 269.5553°
orbit number at epoch: 45094

The dashed part of the orbit path shows where the satellite is in the earth's shadow,  

DLR